カタログに戻る

STARLINK-4350

運用中通信SSO
NORAD 53045·PAYLOAD·🇺🇸 United States

打ち上げ Jul 11, 2022 から Vandenberg Space Force Base

Loading…

次のパス (今後24時間)

TLE

最新Source: CelesTrak SupGP

元期: Sep 15, 2026, 02:54 UTC

1 53045C 22077C   26258.12131944 -.00059389  00000+0 -18436-2 0  2580
2 53045  97.2857  73.9441 0001667  88.7139 308.3716 15.33468337    13

AllMySatでSTARLINK-4350をリアルタイム追跡

Download on the App Store